TimeCDT,TemperatureF,Dew PointF,Humidity,Sea Level PressureIn,VisibilityMPH,Wind Direction,Wind SpeedMPH,Gust SpeedMPH,PrecipitationIn,Events,Conditions,WindDirDegrees,DateUTC
12:54 AM,50.0,39.0,66,30.19,10.0,NNW,5.8,-,N/A,,Clear,340,2013-07-02 05:54:00
1:54 AM,46.9,41.0,80,30.19,10.0,North,4.6,-,N/A,,Clear,350,2013-07-02 06:54:00
2:54 AM,45.0,39.9,82,30.19,10.0,NNW,3.5,-,N/A,,Clear,340,2013-07-02 07:54:00
3:54 AM,46.0,42.1,86,30.19,10.0,NW,5.8,-,N/A,,Clear,320,2013-07-02 08:54:00
4:54 AM,45.0,42.1,90,30.19,10.0,NW,4.6,-,N/A,,Clear,310,2013-07-02 09:54:00
5:54 AM,46.0,41.0,83,30.20,10.0,Calm,Calm,-,N/A,,Clear,0,2013-07-02 10:54:00
6:54 AM,50.0,43.0,77,30.20,10.0,NW,4.6,-,N/A,,Clear,320,2013-07-02 11:54:00
7:54 AM,55.9,43.0,62,30.20,10.0,NNW,3.5,-,N/A,,Clear,340,2013-07-02 12:54:00
9:54 AM,68.0,42.1,39,30.19,10.0,Variable,4.6,-,N/A,,Clear,0,2013-07-02 14:54:00
10:54 AM,71.1,39.9,32,30.18,10.0,Variable,5.8,-,N/A,,Clear,0,2013-07-02 15:54:00
11:54 AM,72.0,42.1,34,30.17,10.0,NE,8.1,-,N/A,,Clear,50,2013-07-02 16:54:00
12:54 PM,73.9,41.0,30,30.17,10.0,Variable,5.8,-,N/A,,Clear,0,2013-07-02 17:54:00
1:54 PM,75.0,41.0,29,30.15,10.0,ENE,5.8,-,N/A,,Clear,60,2013-07-02 18:54:00
2:54 PM,75.9,42.1,30,30.13,10.0,Variable,4.6,-,N/A,,Clear,0,2013-07-02 19:54:00
3:54 PM,77.0,42.1,29,30.12,10.0,Variable,3.5,-,N/A,,Clear,0,2013-07-02 20:54:00
4:54 PM,77.0,41.0,28,30.10,10.0,Variable,3.5,-,N/A,,Clear,0,2013-07-02 21:54:00
5:54 PM,77.0,41.0,28,30.09,10.0,Calm,Calm,-,N/A,,Clear,0,2013-07-02 22:54:00
6:54 PM,75.9,39.9,27,30.08,10.0,Calm,Calm,-,N/A,,Clear,0,2013-07-02 23:54:00
7:54 PM,70.0,41.0,35,30.10,10.0,SSE,6.9,-,N/A,,Clear,150,2013-07-03 00:54:00
8:54 PM,64.0,39.0,40,30.10,10.0,SE,5.8,-,N/A,,Clear,140,2013-07-03 01:54:00
9:54 PM,59.0,42.1,53,30.11,10.0,Calm,Calm,-,N/A,,Clear,0,2013-07-03 02:54:00
10:54 PM,55.0,43.0,64,30.12,10.0,Calm,Calm,-,N/A,,Clear,0,2013-07-03 03:54:00
11:54 PM,53.1,43.0,69,30.12,10.0,Calm,Calm,-,N/A,,Mostly Cloudy,0,2013-07-03 04:54:00